weather.gov     
National Weather Service

Regional Weather Roundup
NWS Homepage
This page is being discontinued on March 12, 2014.
The same data is available at this site. Please update your bookmarks.
Thank you, and we apologize for the inconvenience.
Please send an email to SR-SRH.Webmaster@noaa.gov with any concerns.


Current Version
Previous Version:    01  02  03  04  05  06  07  08  09  10  11  12  13  14  15  16  17  18  19  20  21  22  23  24  25  26  27  28  29  30  
   31  32  33  34  35  36  37  38  39  40  41  42  43  44  45  46  47  48  49  50  51  52  53  54  
[Printable]
636
ASUS44 KJAN 231710
RWRMS

MISSISSIPPI HOURLY WEATHER ROUNDUP
NATIONAL WEATHER SERVICE JACKSON MS
1200 PM CDT SAT AUG 23 2014

NOTE: "FAIR: INDICATES FEW OR NO CLOUDS BELOW 12,000 FEET WITH NO
SIGNIFICANT WEATHER AND/OR OBSTRUCTIONS TO VISIBILITY.

MSZ001>002-007>008-010>013-018>021-025>028-034>036-231800-
NORTHWEST MISSISSIPPI

CITY           SKY/WX    TMP DP  RH WIND       PRES   REMARKS
CLARKSDALE     FAIR      90  77  66 CALM      30.04S HX 102
CLEVELAND      FAIR      91  77  64 W3        30.03S HX 104
GREENWOOD      MOSUNNY   89  72  56 NW6       30.04S HX  96
GREENVILLE     SUNNY     91  73  55 W9        30.03F HX  99
GRENADA        FAIR      90  72  55 NW3       30.04S HX  96
OLIVE BRANCH   SUNNY     91  73  55 N8        30.02F HX 100
OXFORD         FAIR      90  72  55 NW5       30.06S HX  96
TUNICA         SUNNY     91  72  52 W3        30.03S HX  98
$$

MSZ003>006-009-014>017-022>024-029>033-037>039-231800-
NORTHEAST MISSISSIPPI

CITY           SKY/WX    TMP DP  RH WIND       PRES   REMARKS
BELMONT        FAIR      88  76  68 NW5       30.04F HX  98
COLUMBUS AFB   SUNNY     92  70  48 VRB7      30.03F HX  97
CORINTH        FAIR      91  73  55 W7        30.02F HX 100
GOLDN TRIANGLE MOSUNNY   95  70  43 NW5       30.04F HX 101
STARKVILLE     FAIR      90  68  48 W5        30.04S HX  93
TUPELO         MOSUNNY   92  72  51 NW8       30.03F HX  99
$$

MSZ040-058-231800-
CENTRAL MISSISSIPPI

CITY           SKY/WX    TMP DP  RH WIND       PRES   REMARKS
JACKSON INTL   MOSUNNY   93  71  48 VRB6      30.05F HX 100
JACKSON HAWKNS SUNNY     91  72  53 CALM      30.05F HX  98
MERIDIAN KEY   SUNNY     93  69  45 N5        30.03F HX  98
MERIDIAN NAS   SUNNY     92  69  47 N8        30.03F HX  97
RAYMOND        FAIR      90  84  84 W5        30.05F HX 115
VICKSBURG      SUNNY     93  71  48 VRB3      30.04F HX 100
$$

MSZ059>079-231800-
SOUTH MISSISSIPPI

CITY           SKY/WX    TMP DP  RH WIND       PRES   REMARKS
BROOKHAVEN     FAIR      90  77  66 NW3       30.08S HX 102
COLUMBIA       FAIR      91  77  62 MISG      30.03F HX 105
HATTIESBURG    MOSUNNY   95  73  48 N8        30.04F HX 104
MCCOMB         PTSUNNY   90  72  55 VRB3      30.05F HX  97
NATCHEZ        SUNNY     90  73  58 W6        30.07S HX  98
PINE BELT      MOSUNNY   91  72  52 N8        30.06F HX  98
$$

MSZ080>082-231800-
COASTAL MISSISSIPPI

CITY           SKY/WX    TMP DP  RH WIND       PRES   REMARKS
BAY ST LOUIS   MOSUNNY  N/A N/A N/A N6        30.02F
BILOXI         SUNNY     95  73  49 NE10      30.01F HX 104
PASCAGOULA     MOSUNNY   95  75  52 N6        30.01F HX 107
GULFPORT       MOSUNNY   95  74  50 N5        30.00F HX 105
$$




U.S. Dept. of Commerce
NOAA National Weather Service
1325 East West Highway
Silver Spring, MD 20910
E-mail: w-nws.webmaster@noaa.gov
Page last modified: May 16, 2007
NATIONAL WEATHER SERVICE: for Safety, for Work, for Fun - FOR LIFE